Location: Breitenfeld
(46.8500°N, 15.6333°E)
Time: 23:53:14
(UTC+00:00)

Transit 4B - Pass Details

Date: 04 June 2022
Orbit: 948 x 1097 km, 32.4° (Epoch: 03 July)

Event Time Altitude Azimuth Distance (km) Brightness Sun altitude
Exits shadow 00:35:21 23° 181° (S) 1,986 9.6 -17.2°
Drops below altitude 10° 00:40:21 10° 132° (SE) 2,751 10.7 -16.8°
Sets 00:43:30 0° 119° (ESE) 3,675 11.5 -16.6°
